• En España
  • Lista de países
  • Para 7 días
  • Temperatura del agua
  • Mapa Satelital
  • El tiempo en el mapa
  • Informadores
  • user-avatar
    Iniciar sesión

    Tiempo cada hora Stepanakert

    Hoy, 22 Agosto, Martes

    Tiempo Temperatura Precipitaciones Viento Presión Humedad
    00:00 +24°C° 0 mm 1 mps 691 mmHg 59%
    01:00 +23°C° 0 mm 1 mps 691 mmHg 59%
    02:00 +23°C° 0 mm 1 mps 690 mmHg 59%
    03:00 +23°C° 0 mm 1 mps 690 mmHg 57%
    04:00 +23°C° 0 mm 1 mps 691 mmHg 57%
    05:00 +23°C° 0 mm 1 mps 691 mmHg 56%
    06:00 +23°C° 0 mm 1 mps 691 mmHg 56%
    07:00 +25°C° 0 mm 1 mps 691 mmHg 49%
    08:00 +28°C° 0 mm 2 mps 691 mmHg 43%
    09:00 +30°C° 0 mm 2 mps 692 mmHg 35%
    10:00 +31°C° 0 mm 2 mps 692 mmHg 32%
    11:00 +33°C° 0 mm 3 mps 692 mmHg 30%
    12:00 +35°C° 0 mm 3 mps 692 mmHg 27%
    13:00 +35°C° 0 mm 3 mps 691 mmHg 27%
    14:00 +35°C° 0 mm 3 mps 691 mmHg 26%
    15:00 +36°C° 0 mm 3 mps 691 mmHg 26%
    16:00 +35°C° 0 mm 3 mps 690 mmHg 28%
    17:00 +34°C° 0 mm 3 mps 690 mmHg 31%
    18:00 +33°C° 0 mm 3 mps 690 mmHg 34%
    19:00 +30°C° 0 mm 2 mps 690 mmHg 39%
    20:00 +28°C° 0 mm 2 mps 690 mmHg 44%
    21:00 +26°C° 0 mm 2 mps 690 mmHg 49%
    22:00 +25°C° 0 mm 2 mps 690 mmHg 51%
    23:00 +25°C° 0 mm 2 mps 690 mmHg 53%

    Mañana, 23 Agosto, Miércoles

    Tiempo Temperatura Precipitaciones Viento Presión Humedad
    00:00 +24°C° 0 mm 2 mps 690 mmHg 54%
    01:00 +24°C° 0 mm 2 mps 690 mmHg 55%
    02:00 +23°C° 0 mm 2 mps 690 mmHg 56%
    03:00 +23°C° 0 mm 1 mps 690 mmHg 57%
    04:00 +23°C° 0 mm 1 mps 691 mmHg 57%
    05:00 +23°C° 0 mm 1 mps 691 mmHg 57%
    06:00 +23°C° 0 mm 1 mps 691 mmHg 57%
    07:00 +25°C° 0 mm 2 mps 691 mmHg 49%
    08:00 +27°C° 0 mm 2 mps 692 mmHg 42%
    09:00 +29°C° 0 mm 2 mps 692 mmHg 34%
    10:00 +31°C° 0 mm 3 mps 692 mmHg 32%
    11:00 +33°C° 0 mm 3 mps 692 mmHg 29%
    12:00 +34°C° 0 mm 4 mps 692 mmHg 26%
    13:00 +35°C° 0 mm 4 mps 692 mmHg 25%
    14:00 +35°C° 0 mm 4 mps 692 mmHg 25%
    15:00 +35°C° 0 mm 4 mps 691 mmHg 24%
    16:00 +34°C° 0 mm 4 mps 691 mmHg 27%
    17:00 +33°C° 0 mm 4 mps 691 mmHg 30%
    18:00 +32°C° 0 mm 4 mps 691 mmHg 33%
    19:00 +29°C° 0 mm 3 mps 691 mmHg 38%
    20:00 +27°C° 0 mm 2 mps 692 mmHg 43%
    21:00 +25°C° 0 mm 1 mps 692 mmHg 47%
    22:00 +24°C° 0 mm 1 mps 692 mmHg 49%
    23:00 +24°C° 0 mm 1 mps 692 mmHg 50%

    Pasado mañana, 24 Agosto, Jueves

    Tiempo Temperatura Precipitaciones Viento Presión Humedad
    00:00 +23°C° 0 mm 1 mps 692 mmHg 51%
    01:00 +23°C° 0 mm 1 mps 692 mmHg 52%
    02:00 +23°C° 0 mm 1 mps 693 mmHg 53%
    03:00 +22°C° 0 mm 1 mps 693 mmHg 54%
    04:00 +22°C° 0 mm 1 mps 693 mmHg 54%
    05:00 +22°C° 0 mm 1 mps 693 mmHg 54%
    06:00 +23°C° 0 mm 1 mps 693 mmHg 54%
    07:00 +25°C° 0 mm 2 mps 694 mmHg 45%
    08:00 +27°C° 0 mm 2 mps 694 mmHg 37%
    09:00 +29°C° 0 mm 2 mps 695 mmHg 29%
    10:00 +30°C° 0 mm 3 mps 695 mmHg 27%
    11:00 +33°C° 0 mm 3 mps 695 mmHg 25%
    12:00 +34°C° 0 mm 4 mps 695 mmHg 23%
    13:00 +34°C° 0 mm 4 mps 694 mmHg 22%
    14:00 +34°C° 0 mm 4 mps 694 mmHg 22%
    15:00 +35°C° 0 mm 5 mps 694 mmHg 22%
    16:00 +33°C° 0 mm 4 mps 694 mmHg 24%
    17:00 +32°C° 0 mm 4 mps 693 mmHg 26%
    18:00 +30°C° 0 mm 4 mps 693 mmHg 29%
    19:00 +28°C° 0 mm 3 mps 693 mmHg 32%
    20:00 +26°C° 0 mm 2 mps 694 mmHg 35%
    21:00 +24°C° 0 mm 2 mps 694 mmHg 38%
    22:00 +23°C° 0 mm 2 mps 694 mmHg 39%
    23:00 +23°C° 0 mm 2 mps 694 mmHg 40%

    25 Agosto, Viernes

    Tiempo Temperatura Precipitaciones Viento Presión Humedad
    00:00 +21°C° 0 mm 2 mps 694 mmHg 41%
    01:00 +21°C° 0 mm 2 mps 694 mmHg 41%
    02:00 +21°C° 0 mm 2 mps 694 mmHg 42%
    03:00 +21°C° 0 mm 1 mps 694 mmHg 42%
    04:00 +21°C° 0 mm 1 mps 694 mmHg 41%
    05:00 +21°C° 0 mm 1 mps 694 mmHg 39%
    06:00 +22°C° 0 mm 1 mps 695 mmHg 38%
    07:00 +24°C° 0 mm 2 mps 695 mmHg 33%
    08:00 +26°C° 0 mm 2 mps 695 mmHg 27%
    09:00 +29°C° 0 mm 2 mps 696 mmHg 21%
    10:00 +30°C° 0 mm 2 mps 695 mmHg 20%
    11:00 +31°C° 0 mm 3 mps 695 mmHg 18%
    12:00 +33°C° 0 mm 3 mps 695 mmHg 16%
    13:00 +34°C° 0 mm 4 mps 695 mmHg 16%
    14:00 +34°C° 0 mm 4 mps 694 mmHg 16%
    15:00 +34°C° 0 mm 4 mps 694 mmHg 16%
    16:00 +33°C° 0 mm 4 mps 694 mmHg 19%
    17:00 +31°C° 0 mm 3 mps 693 mmHg 21%
    18:00 +29°C° 0 mm 3 mps 693 mmHg 23%
    19:00 +27°C° 0 mm 3 mps 693 mmHg 28%
    20:00 +26°C° 0 mm 2 mps 694 mmHg 33%
    21:00 +24°C° 0 mm 2 mps 694 mmHg 38%
    22:00 +23°C° 0 mm 2 mps 694 mmHg 40%
    23:00 +21°C° 0 mm 2 mps 694 mmHg 42%

    26 Agosto, Sábado

    Tiempo Temperatura Precipitaciones Viento Presión Humedad
    00:00 +21°C° 0 mm 2 mps 693 mmHg 45%
    01:00 +20°C° 0 mm 2 mps 693 mmHg 45%
    02:00 +20°C° 0 mm 2 mps 693 mmHg 44%
    03:00 +20°C° 0 mm 2 mps 693 mmHg 44%
    04:00 +20°C° 0 mm 2 mps 693 mmHg 41%
    05:00 +20°C° 0 mm 2 mps 694 mmHg 39%
    06:00 +20°C° 0 mm 2 mps 694 mmHg 36%
    07:00 +23°C° 0 mm 2 mps 694 mmHg 32%
    08:00 +26°C° 0 mm 2 mps 695 mmHg 27%
    09:00 +28°C° 0 mm 3 mps 695 mmHg 23%
    10:00 +29°C° 0 mm 3 mps 695 mmHg 21%
    11:00 +30°C° 0 mm 3 mps 694 mmHg 20%
    12:00 +32°C° 0 mm 4 mps 694 mmHg 18%
    13:00 +33°C° 0 mm 4 mps 694 mmHg 18%
    14:00 +33°C° 0 mm 4 mps 693 mmHg 18%
    15:00 +33°C° 0 mm 4 mps 693 mmHg 18%
    16:00 +32°C° 0 mm 4 mps 693 mmHg 20%
    17:00 +30°C° 0 mm 4 mps 693 mmHg 22%
    18:00 +28°C° 0 mm 3 mps 693 mmHg 24%
    19:00 +27°C° 0 mm 3 mps 693 mmHg 29%
    20:00 +25°C° 0 mm 3 mps 693 mmHg 33%
    21:00 +23°C° 0 mm 2 mps 693 mmHg 37%
    22:00 +21°C° 0 mm 2 mps 693 mmHg 38%
    23:00 +21°C° 0 mm 2 mps 693 mmHg 40%

    27 Agosto, Domingo

    Tiempo Temperatura Precipitaciones Viento Presión Humedad
    00:00 +20°C° 0 mm 2 mps 693 mmHg 41%
    01:00 +20°C° 0 mm 2 mps 693 mmHg 41%
    02:00 +20°C° 0 mm 2 mps 693 mmHg 41%
    03:00 +19°C° 0 mm 2 mps 693 mmHg 41%
    04:00 +20°C° 0 mm 2 mps 693 mmHg 40%
    05:00 +20°C° 0 mm 2 mps 693 mmHg 39%
    06:00 +20°C° 0 mm 2 mps 693 mmHg 38%
    07:00 +23°C° 0 mm 2 mps 693 mmHg 34%
    08:00 +25°C° 0 mm 2 mps 694 mmHg 29%
    09:00 +28°C° 0 mm 2 mps 694 mmHg 24%
    10:00 +29°C° 0 mm 3 mps 694 mmHg 23%
    11:00 +30°C° 0 mm 3 mps 693 mmHg 22%
    12:00 +32°C° 0 mm 4 mps 693 mmHg 20%
    13:00 +32°C° 0 mm 4 mps 693 mmHg 20%
    14:00 +33°C° 0 mm 4 mps 693 mmHg 20%
    15:00 +33°C° 0 mm 4 mps 692 mmHg 20%
    16:00 +30°C° 0 mm 4 mps 692 mmHg 23%
    17:00 +29°C° 0 mm 4 mps 692 mmHg 26%
    18:00 +28°C° 0 mm 3 mps 692 mmHg 29%
    19:00 +26°C° 0 mm 3 mps 692 mmHg 34%
    20:00 +24°C° 0 mm 2 mps 692 mmHg 39%
    21:00 +23°C° 0 mm 2 mps 692 mmHg 44%
    22:00 +21°C° 0 mm 2 mps 692 mmHg 45%
    23:00 +21°C° 0 mm 2 mps 692 mmHg 46%
    Mostrar más